Data No,UTC Date,UTC Time,Latitude,Longitude,Course(deg),Temp(degC)
540,2022/5/20,8:59,42-36.87N,141-37.03E,208,10.837
541,2022/5/20,9:00,42-36.65N,141-36.86E,208,10.52
542,2022/5/20,9:01,42-36.43N,141-36.80E,187,10.975
543,2022/5/20,9:02,42-36.17N,141-36.81E,177,10.714
544,2022/5/20,9:03,42-35.92N,141-36.81E,176,10.833
545,2022/5/20,9:04,42-35.65N,141-36.83E,179,10.765
546,2022/5/20,9:05,42-35.39N,141-36.81E,181,10.782
547,2022/5/20,9:06,42-35.11N,141-36.80E,182,10.696
548,2022/5/20,9:07,42-34.84N,141-36.78E,182,10.422
549,2022/5/20,9:08,42-34.55N,141-36.75E,183,10.572
550,2022/5/20,9:09,42-34.30N,141-36.75E,183,10.458
551,2022/5/20,9:10,42-34.04N,141-36.73E,183,10.123
552,2022/5/20,9:11,42-33.74N,141-36.70E,183,9.859
553,2022/5/20,9:12,42-33.49N,141-36.66E,183,9.952
554,2022/5/20,9:13,42-33.25N,141-36.63E,184,9.918
555,2022/5/20,9:14,42-32.97N,141-36.61E,183,9.983
556,2022/5/20,9:15,42-32.67N,141-36.58E,184,9.968
557,2022/5/20,9:16,42-32.44N,141-36.56E,184,10.02
558,2022/5/20,9:17,42-32.13N,141-36.55E,181,10.065
559,2022/5/20,9:18,42-31.89N,141-36.56E,179,10.166
560,2022/5/20,9:19,42-31.63N,141-36.57E,179,10.16
561,2022/5/20,9:20,42-31.36N,141-36.58E,179,10.208
562,2022/5/20,9:21,42-31.04N,141-36.58E,179,10.183
563,2022/5/20,9:22,42-30.79N,141-36.58E,179,10.184
564,2022/5/20,9:23,42-30.52N,141-36.60E,179,10.205
565,2022/5/20,9:24,42-30.25N,141-36.60E,177,10.247
566,2022/5/20,9:25,42-29.98N,141-36.63E,178,10.376
567,2022/5/20,9:26,42-29.71N,141-36.65E,177,10.434
568,2022/5/20,9:27,42-29.44N,141-36.67E,178,10.399
569,2022/5/20,9:28,42-29.17N,141-36.67E,179,10.351
570,2022/5/20,9:29,42-28.90N,141-36.68E,179,10.334
571,2022/5/20,9:30,42-28.67N,141-36.69E,178,10.354
572,2022/5/20,9:31,42-28.40N,141-36.70E,178,10.421
573,2022/5/20,9:32,42-28.13N,141-36.71E,178,10.47
574,2022/5/20,9:33,42-27.85N,141-36.71E,178,10.492
575,2022/5/20,9:34,42-27.57N,141-36.72E,179,10.484
576,2022/5/20,9:35,42-27.31N,141-36.72E,180,10.473
577,2022/5/20,9:36,42-27.03N,141-36.73E,179,10.468
578,2022/5/20,9:37,42-26.75N,141-36.74E,178,10.441
579,2022/5/20,9:38,42-26.49N,141-36.74E,178,10.371
580,2022/5/20,9:39,42-26.22N,141-36.75E,178,10.298
581,2022/5/20,9:40,42-25.94N,141-36.75E,179,10.281
582,2022/5/20,9:41,42-25.68N,141-36.76E,179,10.398
583,2022/5/20,9:42,42-25.40N,141-36.76E,179,10.38
584,2022/5/20,9:43,42-25.14N,141-36.76E,179,10.302
585,2022/5/20,9:44,42-24.86N,141-36.76E,179,10.257
586,2022/5/20,9:45,42-24.58N,141-36.76E,179,10.242
587,2022/5/20,9:46,42-24.32N,141-36.76E,180,10.206
588,2022/5/20,9:47,42-24.04N,141-36.75E,183,10.141
589,2022/5/20,9:48,42-23.76N,141-36.72E,183,10.063
590,2022/5/20,9:49,42-23.50N,141-36.70E,183,10.011
591,2022/5/20,9:50,42-23.23N,141-36.68E,183,10.016
592,2022/5/20,9:51,42-22.96N,141-36.65E,184,10.018
593,2022/5/20,9:52,42-22.67N,141-36.62E,184,9.978
594,2022/5/20,9:53,42-22.41N,141-36.60E,184,9.92
595,2022/5/20,9:54,42-22.14N,141-36.57E,184,9.892
596,2022/5/20,9:55,42-21.87N,141-36.54E,185,9.924
597,2022/5/20,9:56,42-21.59N,141-36.50E,185,10.002
598,2022/5/20,9:57,42-21.28N,141-36.46E,184,10.02
599,2022/5/20,9:58,42-21.02N,141-36.45E,181,9.957
600,2022/5/20,9:59,42-20.74N,141-36.44E,181,9.965
601,2022/5/20,10:00,42-20.48N,141-36.43E,181,9.978
602,2022/5/20,10:01,42-20.19N,141-36.42E,181,9.996
603,2022/5/20,10:02,42-19.93N,141-36.41E,183,10.003
604,2022/5/20,10:03,42-19.66N,141-36.36E,188,10.032
605,2022/5/20,10:04,42-19.38N,141-36.29E,191,10.021
606,2022/5/20,10:05,42-19.13N,141-36.21E,193,9.968
607,2022/5/20,10:06,42-18.86N,141-36.12E,193,9.849
608,2022/5/20,10:07,42-18.59N,141-36.04E,193,9.808
609,2022/5/20,10:08,42-18.32N,141-35.96E,192,9.787
610,2022/5/20,10:09,42-18.05N,141-35.89E,190,9.75
611,2022/5/20,10:10,42-17.83N,141-35.85E,187,9.669
612,2022/5/20,10:11,42-17.56N,141-35.80E,186,9.716
613,2022/5/20,10:12,42-17.26N,141-35.76E,185,9.925
614,2022/5/20,10:13,42-17.03N,141-35.73E,184,10.069
615,2022/5/20,10:14,42-16.74N,141-35.70E,184,10.071
616,2022/5/20,10:15,42-16.49N,141-35.68E,183,10
617,2022/5/20,10:16,42-16.22N,141-35.65E,183,10.005
618,2022/5/20,10:17,42-15.95N,141-35.65E,180,10.083
619,2022/5/20,10:18,42-15.69N,141-35.65E,178,10.1
620,2022/5/20,10:19,42-15.41N,141-35.66E,178,10.082
621,2022/5/20,10:20,42-15.15N,141-35.67E,178,10.13
622,2022/5/20,10:21,42-14.88N,141-35.68E,177,10.12
623,2022/5/20,10:22,42-14.61N,141-35.70E,177,10.068
624,2022/5/20,10:23,42-14.35N,141-35.71E,177,10.062
625,2022/5/20,10:24,42-14.06N,141-35.73E,177,10.112
626,2022/5/20,10:25,42-13.80N,141-35.74E,177,10.231
627,2022/5/20,10:26,42-13.53N,141-35.75E,177,10.262
628,2022/5/20,10:27,42-13.26N,141-35.77E,177,10.309
629,2022/5/20,10:28,42-12.99N,141-35.78E,177,10.281
630,2022/5/20,10:29,42-12.71N,141-35.80E,177,10.185
631,2022/5/20,10:30,42-12.45N,141-35.81E,177,9.998
632,2022/5/20,10:31,42-12.18N,141-35.83E,177,10.078
633,2022/5/20,10:32,42-11.90N,141-35.84E,177,10.019
634,2022/5/20,10:33,42-11.62N,141-35.86E,177,9.992
635,2022/5/20,10:34,42-11.36N,141-35.88E,177,9.977
636,2022/5/20,10:35,42-11.09N,141-35.89E,177,9.928
637,2022/5/20,10:36,42-10.82N,141-35.91E,177,9.829
638,2022/5/20,10:37,42-10.54N,141-35.93E,177,9.774
639,2022/5/20,10:38,42-10.27N,141-35.94E,177,9.588
640,2022/5/20,10:39,42-10.00N,141-35.96E,177,9.457
641,2022/5/20,10:40,42-09.73N,141-35.98E,177,9.516
642,2022/5/20,10:41,42-09.46N,141-35.99E,177,9.611
643,2022/5/20,10:42,42-09.19N,141-36.01E,177,9.728
644,2022/5/20,10:43,42-08.93N,141-36.03E,177,9.795
645,2022/5/20,10:44,42-08.66N,141-36.04E,177,9.846
646,2022/5/20,10:45,42-08.39N,141-36.06E,177,9.784
647,2022/5/20,10:46,42-08.12N,141-36.07E,177,9.811
648,2022/5/20,10:47,42-07.85N,141-36.09E,178,9.847
649,2022/5/20,10:48,42-07.59N,141-36.09E,180,9.841
650,2022/5/20,10:49,42-07.32N,141-36.09E,180,9.666
651,2022/5/20,10:50,42-07.05N,141-36.09E,180,9.612
652,2022/5/20,10:51,42-06.78N,141-36.08E,180,9.748
653,2022/5/20,10:52,42-06.51N,141-36.08E,179,9.838
654,2022/5/20,10:53,42-06.25N,141-36.09E,179,9.676
655,2022/5/20,10:54,42-05.97N,141-36.09E,180,9.562
656,2022/5/20,10:55,42-05.70N,141-36.09E,180,9.572
657,2022/5/20,10:56,42-05.44N,141-36.08E,180,9.536
658,2022/5/20,10:57,42-05.17N,141-36.08E,180,9.442
659,2022/5/20,10:58,42-04.91N,141-36.08E,180,9.613
660,2022/5/20,10:59,42-04.64N,141-36.08E,180,9.68
661,2022/5/20,11:00,42-04.37N,141-36.08E,180,9.71
662,2022/5/20,11:01,42-04.11N,141-36.07E,180,9.659
663,2022/5/20,11:02,42-03.83N,141-36.07E,180,9.598
664,2022/5/20,11:03,42-03.57N,141-36.07E,180,9.558
665,2022/5/20,11:04,42-03.30N,141-36.06E,180,9.643
666,2022/5/20,11:05,42-03.04N,141-36.06E,180,9.606
667,2022/5/20,11:06,42-02.77N,141-36.06E,180,9.613
668,2022/5/20,11:07,42-02.50N,141-36.06E,180,9.757
669,2022/5/20,11:08,42-02.24N,141-36.06E,180,9.773
670,2022/5/20,11:09,42-01.96N,141-36.05E,180,9.703
671,2022/5/20,11:10,42-01.69N,141-36.05E,180,9.597
672,2022/5/20,11:11,42-01.43N,141-36.05E,180,9.34
673,2022/5/20,11:12,42-01.15N,141-36.05E,180,9.481
674,2022/5/20,11:13,42-00.89N,141-36.05E,180,9.57
675,2022/5/20,11:14,42-00.62N,141-36.04E,180,9.651
676,2022/5/20,11:15,42-00.34N,141-36.04E,180,9.723
677,2022/5/20,11:16,42-00.08N,141-36.04E,179,9.818
678,2022/5/20,11:17,41-59.80N,141-36.04E,180,9.949
679,2022/5/20,11:18,41-59.53N,141-36.05E,179,10.028
680,2022/5/20,11:19,41-59.26N,141-36.05E,179,9.99
681,2022/5/20,11:20,41-58.99N,141-36.05E,179,9.881
682,2022/5/20,11:21,41-58.72N,141-36.04E,180,9.75
683,2022/5/20,11:22,41-58.44N,141-36.04E,179,9.69
684,2022/5/20,11:23,41-58.18N,141-36.05E,179,9.657
685,2022/5/20,11:24,41-57.90N,141-36.04E,180,9.581
686,2022/5/20,11:25,41-57.62N,141-36.04E,180,9.705
687,2022/5/20,11:26,41-57.36N,141-36.04E,180,9.596
688,2022/5/20,11:27,41-57.07N,141-36.04E,180,9.641
689,2022/5/20,11:28,41-56.81N,141-36.03E,180,9.64
690,2022/5/20,11:29,41-56.53N,141-36.03E,180,9.602
691,2022/5/20,11:30,41-56.25N,141-36.02E,180,9.575
692,2022/5/20,11:31,41-55.98N,141-36.02E,180,9.605
693,2022/5/20,11:32,41-55.71N,141-36.02E,180,9.506
694,2022/5/20,11:33,41-55.44N,141-36.02E,180,9.488
695,2022/5/20,11:34,41-55.16N,141-36.01E,180,9.511
696,2022/5/20,11:35,41-54.89N,141-36.01E,179,9.503
697,2022/5/20,11:36,41-54.61N,141-36.01E,179,9.583
698,2022/5/20,11:37,41-54.34N,141-36.02E,179,9.571
699,2022/5/20,11:38,41-54.07N,141-36.03E,178,9.558
700,2022/5/20,11:39,41-53.80N,141-36.04E,179,9.578
701,2022/5/20,11:40,41-53.52N,141-36.04E,179,9.646
702,2022/5/20,11:41,41-53.25N,141-36.05E,178,9.583
703,2022/5/20,11:42,41-52.98N,141-36.06E,178,9.55
704,2022/5/20,11:43,41-52.71N,141-36.07E,178,9.568
705,2022/5/20,11:44,41-52.44N,141-36.08E,178,9.498
706,2022/5/20,11:45,41-52.16N,141-36.08E,178,9.496
707,2022/5/20,11:46,41-51.89N,141-36.09E,178,9.509
708,2022/5/20,11:47,41-51.61N,141-36.10E,178,9.501
709,2022/5/20,11:48,41-51.35N,141-36.11E,178,9.56
710,2022/5/20,11:49,41-51.07N,141-36.12E,178,9.57
711,2022/5/20,11:50,41-50.80N,141-36.13E,179,9.562
712,2022/5/20,11:51,41-50.53N,141-36.14E,178,9.525
713,2022/5/20,11:52,41-50.25N,141-36.15E,178,9.541
714,2022/5/20,11:53,41-49.97N,141-36.16E,178,9.443
715,2022/5/20,11:54,41-49.72N,141-36.17E,178,9.362
716,2022/5/20,11:55,41-49.44N,141-36.18E,178,9.35
717,2022/5/20,11:56,41-49.18N,141-36.19E,178,9.334
718,2022/5/20,11:57,41-48.90N,141-36.20E,178,9.282
719,2022/5/20,11:58,41-48.64N,141-36.21E,178,9.187
720,2022/5/20,11:59,41-48.37N,141-36.23E,177,9.209
721,2022/5/20,12:00,41-48.09N,141-36.24E,178,9.244
722,2022/5/20,12:01,41-47.83N,141-36.25E,177,9.186
723,2022/5/20,12:02,41-47.55N,141-36.27E,177,9.201
724,2022/5/20,12:03,41-47.25N,141-36.29E,175,9.186
725,2022/5/20,12:04,41-47.02N,141-36.32E,176,9.226
726,2022/5/20,12:05,41-46.74N,141-36.34E,176,9.196
727,2022/5/20,12:06,41-46.48N,141-36.36E,175,9.236
728,2022/5/20,12:07,41-46.20N,141-36.39E,176,9.359
729,2022/5/20,12:08,41-45.94N,141-36.41E,175,9.4
730,2022/5/20,12:09,41-45.67N,141-36.44E,175,9.308
731,2022/5/20,12:10,41-45.39N,141-36.47E,175,9.267
732,2022/5/20,12:11,41-45.11N,141-36.50E,174,9.267
733,2022/5/20,12:12,41-44.83N,141-36.54E,173,9.372
734,2022/5/20,12:13,41-44.56N,141-36.58E,174,9.479
735,2022/5/20,12:14,41-44.29N,141-36.61E,174,9.554
736,2022/5/20,12:15,41-44.01N,141-36.65E,173,9.687
737,2022/5/20,12:16,41-43.74N,141-36.69E,173,9.752
738,2022/5/20,12:17,41-43.46N,141-36.74E,173,9.781
739,2022/5/20,12:18,41-43.18N,141-36.78E,172,9.792
740,2022/5/20,12:19,41-42.90N,141-36.86E,167,9.647
741,2022/5/20,12:20,41-42.62N,141-36.93E,169,9.617
742,2022/5/20,12:21,41-42.35N,141-36.99E,170,9.608
743,2022/5/20,12:22,41-42.07N,141-37.05E,169,9.625
744,2022/5/20,12:23,41-41.80N,141-37.12E,169,9.63
745,2022/5/20,12:24,41-41.53N,141-37.19E,168,9.656
746,2022/5/20,12:25,41-41.25N,141-37.27E,166,9.71
747,2022/5/20,12:26,41-40.98N,141-37.36E,166,9.7
748,2022/5/20,12:27,41-40.71N,141-37.45E,166,9.701
749,2022/5/20,12:28,41-40.44N,141-37.53E,166,9.686
750,2022/5/20,12:29,41-40.17N,141-37.62E,166,9.707
751,2022/5/20,12:30,41-39.89N,141-37.71E,166,9.662
752,2022/5/20,12:31,41-39.63N,141-37.79E,166,9.685
753,2022/5/20,12:32,41-39.35N,141-37.89E,164,9.74
754,2022/5/20,12:33,41-39.08N,141-37.99E,164,9.701
755,2022/5/20,12:34,41-38.81N,141-38.09E,163,9.716
756,2022/5/20,12:35,41-38.54N,141-38.22E,159,9.714
757,2022/5/20,12:36,41-38.28N,141-38.34E,159,9.715
758,2022/5/20,12:37,41-38.01N,141-38.47E,159,9.708
759,2022/5/20,12:38,41-37.74N,141-38.61E,160,9.746
760,2022/5/20,12:39,41-37.47N,141-38.73E,160,9.721
761,2022/5/20,12:40,41-37.19N,141-38.87E,160,9.768
762,2022/5/20,12:41,41-36.92N,141-38.98E,163,9.764
763,2022/5/20,12:42,41-36.62N,141-39.07E,169,9.753
764,2022/5/20,12:43,41-36.35N,141-39.12E,174,9.792
765,2022/5/20,12:44,41-36.07N,141-39.15E,175,9.796
766,2022/5/20,12:45,41-35.78N,141-39.18E,175,9.795
767,2022/5/20,12:46,41-35.50N,141-39.20E,175,9.795
768,2022/5/20,12:47,41-35.22N,141-39.23E,176,9.765
769,2022/5/20,12:48,41-34.90N,141-39.26E,175,9.715
770,2022/5/20,12:49,41-34.62N,141-39.29E,176,9.777
771,2022/5/20,12:50,41-34.37N,141-39.32E,174,9.746
772,2022/5/20,12:51,41-34.10N,141-39.35E,175,9.756
773,2022/5/20,12:52,41-33.82N,141-39.38E,176,9.811
774,2022/5/20,12:53,41-33.54N,141-39.40E,175,9.769
775,2022/5/20,12:54,41-33.24N,141-39.43E,175,9.791
776,2022/5/20,12:55,41-32.93N,141-39.46E,176,9.793
777,2022/5/20,12:56,41-32.66N,141-39.49E,176,9.779
778,2022/5/20,12:57,41-32.38N,141-39.51E,176,9.802
779,2022/5/20,12:58,41-32.10N,141-39.53E,176,9.793
780,2022/5/20,12:59,41-31.82N,141-39.56E,176,9.816
781,2022/5/20,13:00,41-31.53N,141-39.58E,176,9.824
782,2022/5/20,13:01,41-31.26N,141-39.60E,176,9.789
783,2022/5/20,13:02,41-30.98N,141-39.63E,176,9.808
784,2022/5/20,13:03,41-30.70N,141-39.65E,176,9.819
785,2022/5/20,13:04,41-30.42N,141-39.67E,176,9.82
786,2022/5/20,13:05,41-30.13N,141-39.68E,178,9.837
787,2022/5/20,13:06,41-29.85N,141-39.69E,177,9.798
788,2022/5/20,13:07,41-29.58N,141-39.70E,178,9.791
789,2022/5/20,13:08,41-29.34N,141-39.71E,178,9.829
790,2022/5/20,13:09,41-29.08N,141-39.72E,178,9.869
791,2022/5/20,13:10,41-28.80N,141-39.73E,178,9.869
792,2022/5/20,13:11,41-28.54N,141-39.74E,179,9.876
793,2022/5/20,13:12,41-28.27N,141-39.74E,179,9.857
794,2022/5/20,13:13,41-28.00N,141-39.74E,179,9.908
795,2022/5/20,13:14,41-27.73N,141-39.75E,179,9.986
796,2022/5/20,13:15,41-27.46N,141-39.75E,180,10.095
797,2022/5/20,13:16,41-27.20N,141-39.74E,180,10.142
798,2022/5/20,13:17,41-26.92N,141-39.74E,180,10.169
799,2022/5/20,13:18,41-26.65N,141-39.74E,180,10.189
800,2022/5/20,13:19,41-26.38N,141-39.74E,180,10.21
801,2022/5/20,13:20,41-26.10N,141-39.73E,180,10.27
802,2022/5/20,13:21,41-25.84N,141-39.72E,180,10.295
803,2022/5/20,13:22,41-25.57N,141-39.73E,177,10.279
804,2022/5/20,13:23,41-25.31N,141-39.76E,172,10.339
805,2022/5/20,13:24,41-25.05N,141-39.81E,171,10.435
806,2022/5/20,13:25,41-24.78N,141-39.87E,171,10.51
807,2022/5/20,13:26,41-24.52N,141-39.92E,171,10.576
808,2022/5/20,13:27,41-24.26N,141-39.98E,170,10.579
809,2022/5/20,13:28,41-24.00N,141-40.03E,170,10.586
810,2022/5/20,13:29,41-23.74N,141-40.09E,170,10.614
811,2022/5/20,13:30,41-23.47N,141-40.15E,169,10.623
812,2022/5/20,13:31,41-23.22N,141-40.21E,170,10.614
813,2022/5/20,13:32,41-22.96N,141-40.27E,170,10.602
814,2022/5/20,13:33,41-22.70N,141-40.33E,170,10.636
815,2022/5/20,13:34,41-22.44N,141-40.39E,170,10.653
816,2022/5/20,13:35,41-22.17N,141-40.46E,169,10.675
817,2022/5/20,13:36,41-21.91N,141-40.52E,170,10.652
818,2022/5/20,13:37,41-21.65N,141-40.57E,170,10.671
819,2022/5/20,13:38,41-21.37N,141-40.63E,170,10.69
820,2022/5/20,13:39,41-21.11N,141-40.69E,170,10.713
821,2022/5/20,13:40,41-20.85N,141-40.75E,170,10.718
822,2022/5/20,13:41,41-20.58N,141-40.81E,170,10.695
823,2022/5/20,13:42,41-20.31N,141-40.87E,170,10.689
824,2022/5/20,13:43,41-20.04N,141-40.93E,170,10.709
825,2022/5/20,13:44,41-19.77N,141-40.98E,171,10.787
826,2022/5/20,13:45,41-19.49N,141-41.04E,171,10.829
827,2022/5/20,13:46,41-19.23N,141-41.09E,171,10.788
828,2022/5/20,13:47,41-18.95N,141-41.15E,171,10.853
829,2022/5/20,13:48,41-18.68N,141-41.20E,171,10.954
830,2022/5/20,13:49,41-18.41N,141-41.24E,172,10.901
831,2022/5/20,13:50,41-18.13N,141-41.29E,172,11.01
832,2022/5/20,13:51,41-17.87N,141-41.34E,172,10.981
833,2022/5/20,13:52,41-17.60N,141-41.39E,172,10.961
834,2022/5/20,13:53,41-17.33N,141-41.43E,172,10.892
835,2022/5/20,13:54,41-17.06N,141-41.48E,172,10.835
836,2022/5/20,13:55,41-16.79N,141-41.52E,172,10.739
837,2022/5/20,13:56,41-16.52N,141-41.57E,172,10.701
838,2022/5/20,13:57,41-16.27N,141-41.61E,172,10.568
839,2022/5/20,13:58,41-16.00N,141-41.66E,173,10.568
840,2022/5/20,13:59,41-15.73N,141-41.70E,173,10.589
841,2022/5/20,14:00,41-15.47N,141-41.75E,172,10.618
842,2022/5/20,14:01,41-15.21N,141-41.80E,171,10.646
843,2022/5/20,14:02,41-14.96N,141-41.85E,171,10.871
844,2022/5/20,14:03,41-14.69N,141-41.89E,172,10.916
845,2022/5/20,14:04,41-14.44N,141-41.94E,171,10.908
846,2022/5/20,14:05,41-14.18N,141-41.99E,171,10.968
847,2022/5/20,14:06,41-13.92N,141-42.04E,171,10.966
848,2022/5/20,14:07,41-13.66N,141-42.10E,170,10.915
849,2022/5/20,14:08,41-13.39N,141-42.15E,171,11.2
850,2022/5/20,14:09,41-13.14N,141-42.21E,171,11.453
851,2022/5/20,14:10,41-12.87N,141-42.26E,170,11.497
852,2022/5/20,14:11,41-12.60N,141-42.32E,169,11.481
853,2022/5/20,14:12,41-12.35N,141-42.38E,170,11.787
854,2022/5/20,14:13,41-12.08N,141-42.44E,170,11.847
855,2022/5/20,14:14,41-11.82N,141-42.50E,169,11.809
856,2022/5/20,14:15,41-11.55N,141-42.57E,169,11.801
857,2022/5/20,14:16,41-11.28N,141-42.63E,169,11.809
858,2022/5/20,14:17,41-11.03N,141-42.69E,169,11.816
859,2022/5/20,14:18,41-10.76N,141-42.76E,169,11.743
860,2022/5/20,14:19,41-10.49N,141-42.83E,169,11.789
861,2022/5/20,14:20,41-10.23N,141-42.89E,170,11.709
862,2022/5/20,14:21,41-09.97N,141-42.95E,169,11.738
863,2022/5/20,14:22,41-09.71N,141-43.01E,169,11.793
864,2022/5/20,14:23,41-09.44N,141-43.07E,170,11.7
865,2022/5/20,14:24,41-09.18N,141-43.13E,170,11.692
866,2022/5/20,14:25,41-08.92N,141-43.20E,170,11.673
867,2022/5/20,14:26,41-08.66N,141-43.26E,170,11.745
868,2022/5/20,14:27,41-08.40N,141-43.31E,170,11.707
869,2022/5/20,14:28,41-08.13N,141-43.37E,170,11.686
870,2022/5/20,14:29,41-07.87N,141-43.42E,171,11.713
871,2022/5/20,14:30,41-07.60N,141-43.48E,170,11.61
872,2022/5/20,14:31,41-07.33N,141-43.53E,171,11.692
873,2022/5/20,14:32,41-07.07N,141-43.58E,171,11.77
874,2022/5/20,14:33,41-06.80N,141-43.64E,171,11.799
875,2022/5/20,14:34,41-06.49N,141-43.69E,172,11.82
876,2022/5/20,14:35,41-06.23N,141-43.74E,172,11.877
877,2022/5/20,14:36,41-05.97N,141-43.79E,172,11.728
878,2022/5/20,14:37,41-05.70N,141-43.84E,172,11.43
879,2022/5/20,14:38,41-05.43N,141-43.88E,172,11.468
880,2022/5/20,14:39,41-05.17N,141-43.93E,172,11.308
881,2022/5/20,14:40,41-04.91N,141-43.99E,166,11.387
882,2022/5/20,14:41,41-04.72N,141-44.17E,141,11.822
883,2022/5/20,14:42,41-04.53N,141-44.38E,139,11.584
884,2022/5/20,14:43,41-04.32N,141-44.59E,145,11.911
885,2022/5/20,14:44,41-04.09N,141-44.75E,153,11.899
886,2022/5/20,14:45,41-03.87N,141-44.86E,161,11.904
887,2022/5/20,14:46,41-03.62N,141-44.94E,169,11.903
888,2022/5/20,14:47,41-03.35N,141-44.99E,172,11.906
889,2022/5/20,14:48,41-03.09N,141-45.03E,173,12.126
890,2022/5/20,14:49,41-02.83N,141-45.07E,173,12.18
891,2022/5/20,14:50,41-02.57N,141-45.11E,174,12.27
892,2022/5/20,14:51,41-02.31N,141-45.15E,172,12.315
893,2022/5/20,14:52,41-02.05N,141-45.20E,172,12.332
894,2022/5/20,14:53,41-01.78N,141-45.25E,172,12.2
895,2022/5/20,14:54,41-01.53N,141-45.30E,171,11.646
896,2022/5/20,14:55,41-01.27N,141-45.35E,172,10.955
897,2022/5/20,14:56,41-01.01N,141-45.39E,172,10.816
898,2022/5/20,14:57,41-00.75N,141-45.44E,171,10.61
899,2022/5/20,14:58,41-00.48N,141-45.49E,171,10.305
900,2022/5/20,14:59,41-00.22N,141-45.54E,171,9.894
901,2022/5/20,15:00,40-59.95N,141-45.60E,171,9.771
902,2022/5/20,15:01,40-59.69N,141-45.65E,171,9.581
903,2022/5/20,15:02,40-59.43N,141-45.71E,171,9.403
904,2022/5/20,15:03,40-59.16N,141-45.76E,171,9.581
905,2022/5/20,15:04,40-58.90N,141-45.82E,171,9.995
906,2022/5/20,15:05,40-58.64N,141-45.88E,170,10.416
907,2022/5/20,15:06,40-58.37N,141-45.93E,171,10.475
908,2022/5/20,15:07,40-58.11N,141-45.99E,171,10.349
909,2022/5/20,15:08,40-57.84N,141-46.05E,171,10.056
910,2022/5/20,15:09,40-57.58N,141-46.10E,170,9.838
911,2022/5/20,15:10,40-57.31N,141-46.16E,170,9.979
912,2022/5/20,15:11,40-57.04N,141-46.22E,169,9.889
913,2022/5/20,15:12,40-56.78N,141-46.28E,170,9.748
914,2022/5/20,15:13,40-56.52N,141-46.34E,170,9.58
915,2022/5/20,15:14,40-56.26N,141-46.39E,170,9.45
916,2022/5/20,15:15,40-55.99N,141-46.45E,170,9.332
917,2022/5/20,15:16,40-55.73N,141-46.51E,170,9.451
918,2022/5/20,15:17,40-55.47N,141-46.57E,170,9.422
919,2022/5/20,15:18,40-55.20N,141-46.64E,170,9.4
920,2022/5/20,15:19,40-54.95N,141-46.70E,170,8.883
921,2022/5/20,15:20,40-54.64N,141-46.77E,170,9.205
922,2022/5/20,15:21,40-54.38N,141-46.83E,170,9.795
923,2022/5/20,15:22,40-54.17N,141-46.88E,169,9.976
924,2022/5/20,15:23,40-53.90N,141-46.95E,169,10.556
925,2022/5/20,15:24,40-53.64N,141-47.01E,169,10.877
926,2022/5/20,15:25,40-53.35N,141-47.08E,168,10.943
927,2022/5/20,15:26,40-53.12N,141-47.15E,168,11.071
928,2022/5/20,15:27,40-52.86N,141-47.22E,168,11.125
929,2022/5/20,15:28,40-52.59N,141-47.29E,169,11.172
930,2022/5/20,15:29,40-52.33N,141-47.36E,168,11.16
931,2022/5/20,15:30,40-52.07N,141-47.44E,167,11.032
932,2022/5/20,15:31,40-51.81N,141-47.52E,167,11.06
933,2022/5/20,15:32,40-51.54N,141-47.59E,167,10.975
934,2022/5/20,15:33,40-51.28N,141-47.67E,168,11.036
935,2022/5/20,15:34,40-51.02N,141-47.74E,168,11.004
936,2022/5/20,15:35,40-50.76N,141-47.81E,168,10.953
937,2022/5/20,15:36,40-50.49N,141-47.89E,168,10.824
938,2022/5/20,15:37,40-50.22N,141-47.96E,168,10.798
939,2022/5/20,15:38,40-49.96N,141-48.03E,168,10.802
940,2022/5/20,15:39,40-49.70N,141-48.09E,172,10.781
941,2022/5/20,15:40,40-49.42N,141-48.13E,175,10.705
942,2022/5/20,15:41,40-49.16N,141-48.16E,175,10.556
943,2022/5/20,15:42,40-48.89N,141-48.18E,175,10.511
944,2022/5/20,15:43,40-48.62N,141-48.22E,175,10.485
945,2022/5/20,15:44,40-48.36N,141-48.25E,174,10.289
946,2022/5/20,15:45,40-48.09N,141-48.28E,175,10.122
947,2022/5/20,15:46,40-47.81N,141-48.31E,174,9.949
948,2022/5/20,15:47,40-47.55N,141-48.35E,173,9.512
949,2022/5/20,15:48,40-47.27N,141-48.39E,174,9.436
950,2022/5/20,15:49,40-47.01N,141-48.42E,174,9.15
951,2022/5/20,15:50,40-46.73N,141-48.46E,174,9.152
952,2022/5/20,15:51,40-46.47N,141-48.49E,174,9.201
953,2022/5/20,15:52,40-46.20N,141-48.52E,174,9.401
954,2022/5/20,15:53,40-45.93N,141-48.56E,174,9.789
955,2022/5/20,15:54,40-45.67N,141-48.59E,175,9.863
956,2022/5/20,15:55,40-45.40N,141-48.63E,173,9.511
957,2022/5/20,15:56,40-45.13N,141-48.67E,173,9.936
958,2022/5/20,15:57,40-44.86N,141-48.70E,174,10.018
959,2022/5/20,15:58,40-44.59N,141-48.73E,175,9.985
960,2022/5/20,15:59,40-44.32N,141-48.77E,174,10.026
961,2022/5/20,16:00,40-44.05N,141-48.80E,174,9.988
962,2022/5/20,16:01,40-43.77N,141-48.83E,175,9.883
963,2022/5/20,16:02,40-43.51N,141-48.86E,175,9.983
964,2022/5/20,16:03,40-43.22N,141-48.90E,174,9.976
965,2022/5/20,16:04,40-42.95N,141-48.93E,175,9.766
966,2022/5/20,16:05,40-42.69N,141-48.96E,174,9.691
967,2022/5/20,16:06,40-42.41N,141-49.02E,169,9.103
968,2022/5/20,16:07,40-42.15N,141-49.09E,167,8.764
969,2022/5/20,16:08,40-41.88N,141-49.18E,166,8.125
970,2022/5/20,16:09,40-41.62N,141-49.26E,166,8.23
971,2022/5/20,16:10,40-41.35N,141-49.35E,166,8.183
972,2022/5/20,16:11,40-41.07N,141-49.43E,167,8.493
973,2022/5/20,16:12,40-40.81N,141-49.51E,167,8.492
974,2022/5/20,16:13,40-40.53N,141-49.60E,166,8.458
975,2022/5/20,16:14,40-40.27N,141-49.68E,166,8.559
976,2022/5/20,16:15,40-40.00N,141-49.77E,167,8.788
977,2022/5/20,16:16,40-39.71N,141-49.86E,166,8.704
978,2022/5/20,16:17,40-39.46N,141-49.94E,166,8.623
979,2022/5/20,16:18,40-39.19N,141-50.02E,166,8.519
980,2022/5/20,16:19,40-38.92N,141-50.10E,167,8.461
981,2022/5/20,16:20,40-38.65N,141-50.19E,166,8.517
982,2022/5/20,16:21,40-38.37N,141-50.28E,166,8.658
983,2022/5/20,16:22,40-38.11N,141-50.36E,166,8.787
984,2022/5/20,16:23,40-37.84N,141-50.45E,166,8.793
985,2022/5/20,16:24,40-37.56N,141-50.53E,166,8.772
986,2022/5/20,16:25,40-37.30N,141-50.61E,166,8.823
987,2022/5/20,16:26,40-37.02N,141-50.70E,166,8.645
988,2022/5/20,16:27,40-36.75N,141-50.78E,166,8.192
989,2022/5/20,16:28,40-36.48N,141-50.87E,166,8.432
990,2022/5/20,16:29,40-36.21N,141-50.96E,166,8.576
991,2022/5/20,16:30,40-35.94N,141-51.04E,166,8.511
992,2022/5/20,16:31,40-35.66N,141-51.13E,166,8.457
993,2022/5/20,16:32,40-35.40N,141-51.21E,166,8.152
994,2022/5/20,16:33,40-35.12N,141-51.30E,166,8.233
995,2022/5/20,16:34,40-34.84N,141-51.39E,166,8.381
996,2022/5/20,16:35,40-34.58N,141-51.48E,166,8.288
997,2022/5/20,16:36,40-34.30N,141-51.56E,167,8.051